User: anonymous   Login
Location: Mentone
(34.5413°N, 85.5351°W)
Time: 14:59:51
(UTC-06:00)
Language:

Transit 2A Rocket - Orbit

View from above orbital plane
View from above orbital plane
View from above satellite
View from above satellite

Ground track
Ground track

The orbit data is extracted from the following two-line orbital elements,

1    47U 60007C   18050.91578557 -.00000059 +00000-0 +11968-4 0  9999
2    47 066.6642 263.6473 0231137 205.7228 153.2237 14.41966895012332
Epoch (UTC): 19 February 2018 21:58:43
Eccentricity: 0.0231137
inclination: 66.6642°
perigee height: 587 km
apogee height: 917 km
right ascension of ascending node: 263.6473°
argument of perigee: 205.7228°
revolutions per day: 14.41966895
mean anomaly at epoch: 153.2237°
orbit number at epoch: 1233

The dashed part of the orbit path shows where the satellite is in the earth's shadow,  

DLR